P/2003 S1 ( NEAT )

Japanese version
Home page
Updated on February 10, 2013

---------------------------------------------------------------------

* Profile

Discovery Date September 23, 2003
Magnitude 18.8 mag
Discoverer Near-Earth-Asteroid Tracking Team (Jet Propulsion Laboratory)

* Orbital Elements

Epoch 2004 Mar. 16.0 TT = JDT 2453080.5
T 2004 Mar. 27.63591 TT                                 MPC
q   2.5956315            (2000.0)            P               Q
n   0.10130997     Peri.  175.82176     +0.54592957     -0.83291271
a   4.5572332      Node   241.06657     +0.76566192     +0.53990555
e   0.4304370      Incl.    5.94523     +0.34018043     +0.12148424
P   9.73
From 311 observations 2003 July 29-2005 Mar. 12, mean residual 0".6.

* Finding Charts

* Magnitudes Graph

        m1 = 7.7 + 5 log d + 20.0 log r(t + 55)

---------------------------------------------------------------------

The orbital elements are published on M.P.E.C. 2013-A29.
The charts are made with StellaNavigator Ver.2.0 for Windows (AstroArts / ASCII).
The magnitudes graphs are made with Comet for Windows.

---------------------------------------------------------------------

Copyright(C) Seiichi Yoshida (comet@aerith.net). All rights reserved.